TimeCST,TemperatureF,Dew PointF,Humidity,Sea Level PressureIn,VisibilityMPH,Wind Direction,Wind SpeedMPH,Gust SpeedMPH,PrecipitationIn,Events,Conditions,WindDirDegrees,DateUTC
12:15 AM,55.4,55.4,100,30.00,10.0,East,13.8,-,N/A,,Overcast,90,2013-01-10 06:15:00
2:15 AM,55.4,55.4,100,29.96,5.0,East,12.7,18.4,N/A,,Overcast,90,2013-01-10 08:15:00
2:35 AM,55.4,55.4,100,29.96,3.0,East,12.7,18.4,N/A,,Drizzle,100,2013-01-10 08:35:00
2:55 AM,55.4,55.4,100,29.95,3.0,East,13.8,18.4,0.01,,Heavy Drizzle,100,2013-01-10 08:55:00
3:15 AM,55.4,55.4,100,29.96,4.0,ESE,8.1,16.1,0.01,,Drizzle,110,2013-01-10 09:15:00
3:55 AM,55.4,55.4,100,29.95,3.0,ESE,8.1,-,0.02,,Drizzle,120,2013-01-10 09:55:00
4:15 AM,55.4,55.4,100,29.94,5.0,ESE,9.2,-,N/A,,Light Drizzle,110,2013-01-10 10:15:00
4:35 AM,55.4,55.4,100,29.94,10.0,SE,5.8,-,N/A,,Overcast,130,2013-01-10 10:35:00
4:55 AM,55.4,55.4,100,29.92,10.0,SSE,5.8,-,N/A,,Overcast,150,2013-01-10 10:55:00
6:47 AM,57.2,53.6,88,29.94,5.0,South,9.2,-,N/A,,Overcast,190,2013-01-10 12:47:00
7:48 AM,55.4,51.8,88,29.96,13.0,South,11.5,16.1,N/A,,Overcast,180,2013-01-10 13:48:00
8:47 AM,55.4,50.0,82,29.96,13.0,SSW,8.1,18.4,N/A,,Mostly Cloudy,200,2013-01-10 14:47:00
9:48 AM,55.4,48.2,77,29.94,13.0,SSW,9.2,16.1,N/A,,Mostly Cloudy,200,2013-01-10 15:48:00
10:55 AM,57.2,48.2,72,29.96,13.0,SSW,10.4,-,N/A,,Overcast,200,2013-01-10 16:55:00
11:47 AM,55.4,46.4,72,29.94,13.0,SSW,9.2,-,N/A,,Mostly Cloudy,200,2013-01-10 17:47:00
12:59 PM,57.2,44.6,63,29.93,13.0,SSW,12.7,20.7,N/A,,Mostly Cloudy,200,2013-01-10 18:59:00
1:50 PM,59.0,44.6,59,29.91,13.0,SSW,11.5,18.4,N/A,,Mostly Cloudy,200,2013-01-10 19:50:00
2:47 PM,55.4,44.6,67,29.93,13.0,South,9.2,19.6,N/A,,Overcast,190,2013-01-10 20:47:00
3:47 PM,53.6,44.6,72,29.93,13.0,South,8.1,17.3,N/A,,Overcast,190,2013-01-10 21:47:00
4:47 PM,53.6,44.6,72,29.96,13.0,South,10.4,15.0,N/A,,Overcast,190,2013-01-10 22:47:00
5:47 PM,53.6,44.6,72,29.97,13.0,South,12.7,16.1,N/A,,Overcast,180,2013-01-10 23:47:00
6:53 PM,51.8,44.6,76,29.96,15.0,South,8.1,12.7,N/A,,Scattered Clouds,190,2013-01-11 00:53:00
7:47 PM,51.8,44.6,76,29.95,20.0,South,8.1,-,N/A,,Clear,190,2013-01-11 01:47:00
8:47 PM,51.8,44.6,76,29.97,13.0,South,8.1,-,N/A,,Clear,170,2013-01-11 02:47:00
9:15 PM,51.8,44.6,76,29.95,10.0,South,6.9,-,N/A,,Clear,190,2013-01-11 03:15:00
9:35 PM,51.8,44.6,76,29.95,10.0,South,6.9,-,N/A,,Clear,190,2013-01-11 03:35:00
9:55 PM,50.0,42.8,76,29.95,10.0,SSE,5.8,-,N/A,,Clear,160,2013-01-11 03:55:00
10:15 PM,50.0,44.6,82,29.95,10.0,South,8.1,-,N/A,,Clear,170,2013-01-11 04:15:00
10:35 PM,50.0,42.8,76,29.95,10.0,South,5.8,-,N/A,,Clear,170,2013-01-11 04:35:00
11:35 PM,51.8,42.8,71,29.96,10.0,South,8.1,-,N/A,,Clear,190,2013-01-11 05:35:00
11:55 PM,51.8,42.8,71,29.96,10.0,South,6.9,-,N/A,,Clear,170,2013-01-11 05:55:00